Location: Bodest
(46.3000°N, 22.5667°E)
Time: 20:35:18
(UTC+00:00)

Cosmos 2278 - Pass Details

Date: 16 October 2021
Orbit: 838 x 854 km, 71.1° (Epoch: 29 November)

Event Time Altitude Azimuth Distance (km) Brightness Sun altitude
Rises 17:45:07 0° 212° (SSW) 3,386 7.1 -22.1°
Reaches altitude 10° 17:47:34 10° 215° (SW) 2,458 6.4 -22.5°
Maximum altitude 17:53:11 69° 298° (WNW) 905 3.9 -23.4°
Drops below altitude 10° 17:58:53 10° 23° (NNE) 2,484 6.0 -24.4°
Sets 18:01:22 0° 26° (NNE) 3,426 6.7 -24.8°
